Time,TemperatureF,DewpointF,PressureIn,WindDirection,WindDirectionDegrees,WindSpeedMPH,WindSpeedGustMPH,Humidity,HourlyPrecipIn,Conditions,Clouds,dailyrainin,SoftwareType,DateUTC
2013-03-08 00:02:00,40.6,37.4,29.74,SSE,165,0.0,1.0,88,0.00,,,0.00,meteohub,2013-03-08 08:02:00,
2013-03-08 00:07:00,40.8,37.6,29.74,SSE,165,0.0,2.0,88,0.00,,,0.00,meteohub,2013-03-08 08:07:00,
2013-03-08 00:12:00,41.2,37.6,29.74,SSE,165,0.0,2.0,87,0.00,,,0.00,meteohub,2013-03-08 08:12:00,
2013-03-08 00:17:00,41.0,37.4,29.74,SSE,165,0.0,2.0,87,0.00,,,0.00,meteohub,2013-03-08 08:17:00,
2013-03-08 00:22:00,40.8,37.0,29.74,SSE,165,0.0,2.0,86,0.00,,,0.00,meteohub,2013-03-08 08:22:00,
2013-03-08 00:27:00,40.6,37.0,29.74,SSE,165,1.0,0.0,87,0.00,,,0.00,meteohub,2013-03-08 08:27:00,
2013-03-08 00:32:00,40.5,36.9,29.74,SSE,165,0.0,1.0,87,0.00,,,0.00,meteohub,2013-03-08 08:32:00,
2013-03-08 00:37:00,40.3,36.7,29.74,SSE,165,0.0,1.0,87,0.00,,,0.00,meteohub,2013-03-08 08:37:00,
2013-03-08 00:42:00,39.9,36.3,29.74,SSE,165,0.0,1.0,87,0.00,,,0.00,meteohub,2013-03-08 08:42:00,
2013-03-08 00:47:00,39.7,36.5,29.74,SSE,165,0.0,0.0,88,0.00,,,0.00,meteohub,2013-03-08 08:47:00,
2013-03-08 00:52:00,39.7,36.7,29.74,SSE,165,0.0,0.0,89,0.00,,,0.00,meteohub,2013-03-08 08:52:00,
2013-03-08 00:57:00,39.6,36.5,29.74,SSE,165,0.0,0.0,89,0.00,,,0.00,meteohub,2013-03-08 08:57:00,
2013-03-08 01:02:00,39.4,36.5,29.74,SSE,165,0.0,0.0,89,0.00,,,0.00,meteohub,2013-03-08 09:02:00,
2013-03-08 01:07:00,39.4,36.7,29.74,SSE,165,0.0,0.0,90,0.00,,,0.00,meteohub,2013-03-08 09:07:00,
2013-03-08 01:12:00,39.2,36.5,29.74,SSE,165,0.0,0.0,90,0.00,,,0.00,meteohub,2013-03-08 09:12:00,
2013-03-08 01:17:00,39.0,36.3,29.74,SSE,165,0.0,0.0,90,0.00,,,0.00,meteohub,2013-03-08 09:17:00,
2013-03-08 01:22:00,39.0,36.7,29.74,SSE,165,0.0,0.0,91,0.00,,,0.00,meteohub,2013-03-08 09:22:00,
2013-03-08 01:27:00,38.8,36.5,29.74,SSE,165,0.0,1.0,91,0.00,,,0.00,meteohub,2013-03-08 09:27:00,
2013-03-08 01:32:00,38.8,36.5,29.74,SSE,165,0.0,1.0,91,0.00,,,0.00,meteohub,2013-03-08 09:32:00,
2013-03-08 01:37:00,38.8,36.5,29.74,SSE,165,0.0,1.0,91,0.00,,,0.00,meteohub,2013-03-08 09:37:00,
2013-03-08 01:42:00,38.8,36.5,29.73,SSE,165,0.0,0.0,91,0.00,,,0.00,meteohub,2013-03-08 09:42:00,
2013-03-08 01:47:00,39.0,36.7,29.73,SSE,165,0.0,0.0,91,0.00,,,0.00,meteohub,2013-03-08 09:47:00,
2013-03-08 01:52:00,39.0,36.7,29.73,SSE,165,0.0,0.0,91,0.00,,,0.00,meteohub,2013-03-08 09:52:00,
2013-03-08 01:57:00,38.8,36.5,29.73,SSE,165,0.0,0.0,91,0.00,,,0.00,meteohub,2013-03-08 09:57:00,
2013-03-08 02:02:00,38.8,36.5,29.73,SSE,165,0.0,0.0,91,0.00,,,0.00,meteohub,2013-03-08 10:02:00,
2013-03-08 02:07:00,38.7,36.3,29.73,SSE,165,0.0,0.0,91,0.00,,,0.00,meteohub,2013-03-08 10:07:00,
2013-03-08 02:12:00,38.7,36.3,29.73,SSE,165,0.0,0.0,91,0.00,,,0.00,meteohub,2013-03-08 10:12:00,
2013-03-08 02:17:00,38.5,36.1,29.73,SSE,165,0.0,0.0,91,0.00,,,0.00,meteohub,2013-03-08 10:17:00,
2013-03-08 02:22:00,38.5,36.1,29.73,SSE,165,0.0,0.0,91,0.00,,,0.00,meteohub,2013-03-08 10:22:00,
2013-03-08 02:27:00,38.1,35.8,29.73,SSE,165,0.0,0.0,91,0.00,,,0.00,meteohub,2013-03-08 10:27:00,
2013-03-08 02:32:00,38.1,36.0,29.73,SSE,165,0.0,0.0,92,0.00,,,0.00,meteohub,2013-03-08 10:32:00,
2013-03-08 02:37:00,38.1,36.0,29.73,SSE,165,0.0,0.0,92,0.00,,,0.00,meteohub,2013-03-08 10:37:00,
2013-03-08 02:42:00,37.9,35.8,29.73,SSE,165,0.0,0.0,92,0.00,,,0.00,meteohub,2013-03-08 10:42:00,
2013-03-08 02:47:00,38.1,36.0,29.73,SSE,165,0.0,0.0,92,0.00,,,0.00,meteohub,2013-03-08 10:47:00,
2013-03-08 02:52:00,37.9,35.8,29.73,SSE,165,0.0,0.0,92,0.00,,,0.00,meteohub,2013-03-08 10:52:00,
2013-03-08 02:57:00,37.9,35.8,29.73,SSE,165,0.0,0.0,92,0.00,,,0.00,meteohub,2013-03-08 10:57:00,
2013-03-08 03:02:00,37.9,35.8,29.73,SSE,165,0.0,0.0,92,0.00,,,0.00,meteohub,2013-03-08 11:02:00,
2013-03-08 03:07:00,37.9,35.8,29.73,SSE,165,0.0,0.0,92,0.00,,,0.00,meteohub,2013-03-08 11:07:00,
2013-03-08 03:12:00,37.9,36.1,29.72,SSE,165,0.0,0.0,93,0.00,,,0.00,meteohub,2013-03-08 11:12:00,
2013-03-08 03:17:00,37.9,35.8,29.72,SSE,165,0.0,0.0,92,0.00,,,0.00,meteohub,2013-03-08 11:17:00,
2013-03-08 03:22:00,37.9,36.1,29.72,SSE,165,0.0,0.0,93,0.00,,,0.00,meteohub,2013-03-08 11:22:00,
2013-03-08 03:27:00,37.9,35.8,29.72,SSE,165,0.0,0.0,92,0.00,,,0.00,meteohub,2013-03-08 11:27:00,
2013-03-08 03:32:00,37.8,35.6,29.72,SSE,165,0.0,0.0,92,0.00,,,0.00,meteohub,2013-03-08 11:32:00,
2013-03-08 03:37:00,37.8,36.0,29.72,SSE,165,0.0,0.0,93,0.00,,,0.00,meteohub,2013-03-08 11:37:00,
2013-03-08 03:42:00,37.8,35.6,29.71,SSE,165,0.0,0.0,92,0.00,,,0.00,meteohub,2013-03-08 11:42:00,
2013-03-08 03:47:00,37.6,35.4,29.71,SSE,165,0.0,0.0,92,0.00,,,0.00,meteohub,2013-03-08 11:47:00,
2013-03-08 03:52:00,37.2,35.1,29.71,SSE,165,0.0,0.0,92,0.00,,,0.00,meteohub,2013-03-08 11:52:00,
2013-03-08 03:57:00,37.0,35.2,29.72,SSE,165,0.0,0.0,93,0.00,,,0.00,meteohub,2013-03-08 11:57:00,
2013-03-08 04:01:00,37.0,35.2,29.72,SSE,165,0.0,0.0,93,0.00,,,0.00,meteohub,2013-03-08 12:01:00,
2013-03-08 04:06:00,36.9,34.7,29.72,SSE,165,0.0,0.0,92,0.00,,,0.00,meteohub,2013-03-08 12:06:00,
2013-03-08 04:12:00,36.9,35.1,29.72,SSE,165,0.0,0.0,93,0.00,,,0.00,meteohub,2013-03-08 12:12:00,
2013-03-08 04:17:00,36.7,34.9,29.72,SSE,165,0.0,0.0,93,0.00,,,0.00,meteohub,2013-03-08 12:17:00,
2013-03-08 04:22:00,36.5,34.7,29.72,SSE,165,0.0,0.0,93,0.00,,,0.00,meteohub,2013-03-08 12:22:00,
2013-03-08 04:27:00,36.3,34.5,29.72,SSE,165,0.0,0.0,93,0.00,,,0.00,meteohub,2013-03-08 12:27:00,
2013-03-08 04:32:00,36.1,34.3,29.72,SSE,165,0.0,0.0,93,0.00,,,0.00,meteohub,2013-03-08 12:32:00,
2013-03-08 04:37:00,36.1,34.5,29.72,SSE,165,0.0,0.0,94,0.00,,,0.00,meteohub,2013-03-08 12:37:00,
2013-03-08 04:42:00,36.1,34.5,29.72,SSE,165,0.0,0.0,94,0.00,,,0.00,meteohub,2013-03-08 12:42:00,
2013-03-08 04:47:00,36.0,34.3,29.72,SSE,165,0.0,0.0,94,0.00,,,0.00,meteohub,2013-03-08 12:47:00,
2013-03-08 04:52:00,36.0,34.3,29.72,SSE,165,0.0,0.0,94,0.00,,,0.00,meteohub,2013-03-08 12:52:00,
2013-03-08 04:57:00,36.0,34.3,29.73,SSE,165,0.0,0.0,94,0.00,,,0.00,meteohub,2013-03-08 12:57:00,
2013-03-08 05:02:00,35.8,34.2,29.73,SSE,165,0.0,0.0,94,0.00,,,0.00,meteohub,2013-03-08 13:02:00,
2013-03-08 05:07:00,35.8,34.2,29.73,SSE,165,0.0,0.0,94,0.00,,,0.00,meteohub,2013-03-08 13:07:00,
2013-03-08 05:12:00,35.8,34.2,29.72,SSE,165,0.0,0.0,94,0.00,,,0.00,meteohub,2013-03-08 13:12:00,
2013-03-08 05:17:00,35.8,34.2,29.72,SSE,165,0.0,0.0,94,0.00,,,0.00,meteohub,2013-03-08 13:17:00,
2013-03-08 05:22:00,35.8,34.5,29.72,SSE,165,0.0,0.0,95,0.00,,,0.00,meteohub,2013-03-08 13:22:00,
2013-03-08 05:27:00,35.8,34.5,29.73,SSE,165,0.0,0.0,95,0.00,,,0.00,meteohub,2013-03-08 13:27:00,
2013-03-08 05:32:00,35.6,34.0,29.73,SSE,165,0.0,0.0,94,0.00,,,0.00,meteohub,2013-03-08 13:32:00,
2013-03-08 05:37:00,35.4,33.8,29.73,SSE,165,0.0,0.0,94,0.00,,,0.00,meteohub,2013-03-08 13:37:00,
2013-03-08 05:42:00,35.2,33.6,29.73,SSE,165,0.0,0.0,94,0.00,,,0.00,meteohub,2013-03-08 13:42:00,
2013-03-08 05:47:00,35.2,33.6,29.73,SSE,165,0.0,0.0,94,0.00,,,0.00,meteohub,2013-03-08 13:47:00,
2013-03-08 05:52:00,35.1,33.4,29.73,SSE,165,0.0,0.0,94,0.00,,,0.00,meteohub,2013-03-08 13:52:00,
2013-03-08 05:57:00,35.1,33.4,29.73,SSE,165,0.0,0.0,94,0.00,,,0.00,meteohub,2013-03-08 13:57:00,
2013-03-08 06:02:00,34.9,33.3,29.73,SSE,165,0.0,0.0,94,0.00,,,0.00,meteohub,2013-03-08 14:02:00,
2013-03-08 06:07:00,34.7,33.1,29.73,SSE,165,0.0,0.0,94,0.00,,,0.00,meteohub,2013-03-08 14:07:00,
2013-03-08 06:12:00,34.5,32.9,29.73,SSE,165,0.0,0.0,94,0.00,,,0.00,meteohub,2013-03-08 14:12:00,
2013-03-08 06:17:00,34.5,33.3,29.73,SSE,165,0.0,0.0,95,0.00,,,0.00,meteohub,2013-03-08 14:17:00,
2013-03-08 06:22:00,34.5,33.3,29.73,SSE,165,0.0,0.0,95,0.00,,,0.00,meteohub,2013-03-08 14:22:00,
2013-03-08 06:27:00,34.5,33.3,29.74,SSE,165,0.0,0.0,95,0.00,,,0.00,meteohub,2013-03-08 14:27:00,
2013-03-08 06:32:00,34.5,33.3,29.74,SSE,165,0.0,0.0,95,0.00,,,0.00,meteohub,2013-03-08 14:32:00,
2013-03-08 06:37:00,34.5,33.3,29.74,SSE,165,0.0,0.0,95,0.00,,,0.00,meteohub,2013-03-08 14:37:00,
2013-03-08 06:42:00,34.5,33.4,29.74,SSE,165,0.0,0.0,96,0.00,,,0.00,meteohub,2013-03-08 14:42:00,
2013-03-08 06:47:00,34.7,33.6,29.74,SSE,165,0.0,0.0,96,0.00,,,0.00,meteohub,2013-03-08 14:47:00,
2013-03-08 06:52:00,34.9,33.8,29.74,SSE,165,0.0,0.0,96,0.00,,,0.00,meteohub,2013-03-08 14:52:00,
2013-03-08 06:57:00,34.9,33.8,29.74,SSE,165,0.0,0.0,96,0.00,,,0.00,meteohub,2013-03-08 14:57:00,
2013-03-08 07:02:00,34.9,33.8,29.74,SSE,165,0.0,0.0,96,0.00,,,0.00,meteohub,2013-03-08 15:02:00,
2013-03-08 07:07:00,35.1,34.0,29.74,SSE,165,0.0,0.0,96,0.00,,,0.00,meteohub,2013-03-08 15:07:00,
2013-03-08 07:12:00,35.2,34.2,29.74,SSE,165,0.0,0.0,96,0.00,,,0.00,meteohub,2013-03-08 15:12:00,
2013-03-08 07:17:00,35.2,34.2,29.74,SSE,165,0.0,0.0,96,0.00,,,0.00,meteohub,2013-03-08 15:17:00,
2013-03-08 07:22:00,35.2,34.2,29.74,SSE,165,0.0,0.0,96,0.00,,,0.00,meteohub,2013-03-08 15:22:00,
2013-03-08 07:27:00,35.2,34.2,29.74,SSE,165,0.0,0.0,96,0.00,,,0.00,meteohub,2013-03-08 15:27:00,
2013-03-08 07:32:00,35.4,34.3,29.74,SSE,165,0.0,0.0,96,0.00,,,0.00,meteohub,2013-03-08 15:32:00,
2013-03-08 07:37:00,35.4,34.3,29.74,SSE,165,0.0,0.0,96,0.00,,,0.00,meteohub,2013-03-08 15:37:00,
2013-03-08 07:42:00,35.8,34.7,29.75,SSE,165,0.0,0.0,96,0.00,,,0.00,meteohub,2013-03-08 15:42:00,
2013-03-08 07:47:00,36.1,35.4,29.75,SSE,165,0.0,0.0,97,0.00,,,0.00,meteohub,2013-03-08 15:47:00,
2013-03-08 07:52:00,36.5,35.8,29.75,SSE,165,0.0,0.0,97,0.00,,,0.00,meteohub,2013-03-08 15:52:00,
2013-03-08 07:57:00,37.0,36.3,29.75,SSE,165,0.0,0.0,97,0.00,,,0.00,meteohub,2013-03-08 15:57:00,
2013-03-08 08:02:00,38.3,37.6,29.75,SSE,165,0.0,0.0,97,0.00,,,0.00,meteohub,2013-03-08 16:02:00,
2013-03-08 08:07:00,39.6,39.0,29.75,SSE,165,0.0,0.0,98,0.00,,,0.00,meteohub,2013-03-08 16:07:00,
2013-03-08 08:12:00,40.8,40.1,29.75,SSE,165,1.0,2.0,97,0.00,,,0.00,meteohub,2013-03-08 16:12:00,
2013-03-08 08:17:00,41.9,39.7,29.75,SSE,165,1.0,3.0,92,0.00,,,0.00,meteohub,2013-03-08 16:17:00,
2013-03-08 08:22:00,43.0,40.3,29.75,SSE,165,0.0,3.0,90,0.00,,,0.00,meteohub,2013-03-08 16:22:00,
2013-03-08 08:27:00,43.9,41.2,29.75,SSE,165,0.0,2.0,90,0.00,,,0.00,meteohub,2013-03-08 16:27:00,
2013-03-08 08:32:00,44.8,41.2,29.75,SSE,165,0.0,2.0,87,0.00,,,0.00,meteohub,2013-03-08 16:32:00,
2013-03-08 08:37:00,45.3,41.0,29.75,SSE,165,0.0,0.0,85,0.00,,,0.00,meteohub,2013-03-08 16:37:00,
2013-03-08 08:42:00,46.0,41.5,29.76,SSE,165,0.0,1.0,84,0.00,,,0.00,meteohub,2013-03-08 16:42:00,
2013-03-08 08:47:00,46.6,41.0,29.76,SSE,165,0.0,1.0,81,0.00,,,0.00,meteohub,2013-03-08 16:47:00,
2013-03-08 08:52:00,46.9,40.8,29.76,SW,217,1.0,1.0,79,0.00,,,0.00,meteohub,2013-03-08 16:52:00,
2013-03-08 08:57:00,46.9,40.5,29.76,SW,217,2.0,3.0,78,0.00,,,0.00,meteohub,2013-03-08 16:57:00,
2013-03-08 09:02:00,46.9,40.1,29.76,SW,217,0.0,3.0,77,0.00,,,0.00,meteohub,2013-03-08 17:02:00,
2013-03-08 09:07:00,47.7,40.5,29.76,SW,217,0.0,3.0,76,0.00,,,0.00,meteohub,2013-03-08 17:07:00,
2013-03-08 09:12:00,48.4,40.1,29.76,SW,217,0.0,3.0,73,0.00,,,0.00,meteohub,2013-03-08 17:12:00,
2013-03-08 09:17:00,49.3,41.0,29.76,SW,217,1.0,3.0,73,0.00,,,0.00,meteohub,2013-03-08 17:17:00,
2013-03-08 09:22:00,50.2,40.5,29.76,SW,226,1.0,3.0,69,0.00,,,0.00,meteohub,2013-03-08 17:22:00,
2013-03-08 09:27:00,50.7,39.7,29.76,SW,228,0.0,4.0,66,0.00,,,0.00,meteohub,2013-03-08 17:27:00,
2013-03-08 09:32:00,51.3,39.6,29.76,SW,230,2.0,5.0,64,0.00,,,0.00,meteohub,2013-03-08 17:32:00,
2013-03-08 09:37:00,51.4,40.1,29.76,SW,234,2.0,6.0,65,0.00,,,0.00,meteohub,2013-03-08 17:37:00,
2013-03-08 09:42:00,51.6,40.3,29.76,SW,234,3.0,6.0,65,0.00,,,0.00,meteohub,2013-03-08 17:42:00,
2013-03-08 09:47:00,52.0,40.1,29.76,WNW,285,1.0,6.0,64,0.00,,,0.00,meteohub,2013-03-08 17:47:00,
2013-03-08 09:52:00,52.2,39.9,29.76,WNW,282,2.0,7.0,63,0.00,,,0.00,meteohub,2013-03-08 17:52:00,
2013-03-08 09:57:00,52.3,41.0,29.76,WNW,284,0.0,7.0,65,0.00,,,0.00,meteohub,2013-03-08 17:57:00,
2013-03-08 10:02:00,52.9,40.6,29.76,WNW,284,0.0,7.0,63,0.00,,,0.00,meteohub,2013-03-08 18:02:00,
2013-03-08 10:07:00,53.1,40.5,29.76,WNW,300,3.0,5.0,62,0.00,,,0.00,meteohub,2013-03-08 18:07:00,
2013-03-08 10:12:00,53.4,40.6,29.76,WNW,298,2.0,6.0,62,0.00,,,0.00,meteohub,2013-03-08 18:12:00,
2013-03-08 10:17:00,53.8,40.3,29.76,WNW,293,4.0,6.0,60,0.00,,,0.00,meteohub,2013-03-08 18:17:00,
2013-03-08 10:22:00,54.0,39.9,29.76,West,273,2.0,7.0,59,0.00,,,0.00,meteohub,2013-03-08 18:22:00,
2013-03-08 10:27:00,54.1,40.1,29.76,West,273,2.0,7.0,59,0.00,,,0.00,meteohub,2013-03-08 18:27:00,
2013-03-08 10:32:00,54.3,40.8,29.76,West,272,0.0,6.0,60,0.00,,,0.00,meteohub,2013-03-08 18:32:00,
2013-03-08 10:37:00,54.7,41.0,29.76,West,269,2.0,6.0,60,0.00,,,0.00,meteohub,2013-03-08 18:37:00,
2013-03-08 10:42:00,54.9,39.9,29.76,West,269,1.0,6.0,57,0.00,,,0.00,meteohub,2013-03-08 18:42:00,
2013-03-08 10:47:00,54.7,40.3,29.76,WSW,245,0.0,6.0,58,0.00,,,0.00,meteohub,2013-03-08 18:47:00,
2013-03-08 10:52:00,54.7,40.6,29.76,WSW,244,0.0,6.0,59,0.00,,,0.00,meteohub,2013-03-08 18:52:00,
2013-03-08 10:57:00,55.0,41.0,29.76,WSW,244,0.0,6.0,59,0.00,,,0.00,meteohub,2013-03-08 18:57:00,
2013-03-08 11:02:00,55.6,41.5,29.76,WSW,244,0.0,6.0,59,0.00,,,0.00,meteohub,2013-03-08 19:02:00,
2013-03-08 11:07:00,55.8,40.3,29.76,WSW,242,1.0,3.0,56,0.00,,,0.00,meteohub,2013-03-08 19:07:00,
2013-03-08 11:12:00,56.1,41.5,29.75,WSW,242,0.0,5.0,58,0.00,,,0.00,meteohub,2013-03-08 19:12:00,
2013-03-08 11:17:00,56.5,41.0,29.75,WSW,242,1.0,5.0,56,0.00,,,0.00,meteohub,2013-03-08 19:17:00,
2013-03-08 11:22:00,56.5,40.5,29.75,WSW,243,1.0,4.0,55,0.00,,,0.00,meteohub,2013-03-08 19:22:00,
2013-03-08 11:27:00,56.1,39.7,29.75,SW,227,7.0,7.0,54,0.00,,,0.00,meteohub,2013-03-08 19:27:00,
2013-03-08 11:32:00,55.9,40.5,29.75,SW,229,2.0,7.0,56,0.00,,,0.00,meteohub,2013-03-08 19:32:00,
2013-03-08 11:37:00,56.3,41.7,29.75,NW,316,1.0,7.0,58,0.00,,,0.00,meteohub,2013-03-08 19:37:00,
2013-03-08 11:42:00,57.0,41.0,29.75,NW,309,2.0,7.0,55,0.00,,,0.00,meteohub,2013-03-08 19:42:00,
2013-03-08 11:47:00,57.6,41.9,29.75,WSW,250,5.0,6.0,56,0.00,,,0.00,meteohub,2013-03-08 19:47:00,
2013-03-08 11:52:00,57.2,40.3,29.75,West,263,3.0,9.0,53,0.00,,,0.00,meteohub,2013-03-08 19:52:00,
2013-03-08 11:57:00,57.4,41.9,29.75,West,269,1.0,9.0,56,0.00,,,0.00,meteohub,2013-03-08 19:57:00,
2013-03-08 12:02:00,57.7,41.2,29.75,West,273,2.0,9.0,54,0.00,,,0.00,meteohub,2013-03-08 20:02:00,
2013-03-08 12:07:00,57.9,39.4,29.75,West,270,1.0,6.0,50,0.00,,,0.00,meteohub,2013-03-08 20:07:00,
2013-03-08 12:12:00,58.5,40.5,29.74,West,270,0.0,7.0,51,0.00,,,0.00,meteohub,2013-03-08 20:12:00,
2013-03-08 12:17:00,58.8,38.7,29.74,West,265,5.0,7.0,47,0.00,,,0.00,meteohub,2013-03-08 20:17:00,
2013-03-08 12:22:00,59.0,39.9,29.74,WNW,296,4.0,10.0,49,0.00,,,0.00,meteohub,2013-03-08 20:22:00,
2013-03-08 12:27:00,59.2,40.6,29.74,West,263,0.0,10.0,50,0.00,,,0.00,meteohub,2013-03-08 20:27:00,
2013-03-08 12:32:00,59.2,40.1,29.74,West,267,1.0,10.0,49,0.00,,,0.00,meteohub,2013-03-08 20:32:00,
2013-03-08 12:37:00,59.4,39.7,29.74,West,280,4.0,7.0,48,0.00,,,0.00,meteohub,2013-03-08 20:37:00,
2013-03-08 12:42:00,59.7,37.8,29.73,WNW,290,0.0,9.0,44,0.00,,,0.00,meteohub,2013-03-08 20:42:00,
2013-03-08 12:47:00,59.9,37.9,29.73,WNW,290,0.0,9.0,44,0.00,,,0.00,meteohub,2013-03-08 20:47:00,
2013-03-08 12:52:00,60.1,37.6,29.73,SSW,202,2.0,11.0,43,0.00,,,0.00,meteohub,2013-03-08 20:52:00,
2013-03-08 12:57:00,59.7,38.3,29.73,SW,215,3.0,11.0,45,0.00,,,0.00,meteohub,2013-03-08 20:57:00,
2013-03-08 13:02:00,59.4,36.9,29.73,NW,304,0.0,11.0,43,0.00,,,0.00,meteohub,2013-03-08 21:02:00,
2013-03-08 13:07:00,59.2,36.7,29.73,NW,315,0.0,12.0,43,0.00,,,0.00,meteohub,2013-03-08 21:07:00,
2013-03-08 13:12:00,59.2,36.7,29.73,NW,316,0.0,12.0,43,0.00,,,0.00,meteohub,2013-03-08 21:12:00,
2013-03-08 13:17:00,58.8,35.8,29.73,NW,316,0.0,10.0,42,0.00,,,0.00,meteohub,2013-03-08 21:17:00,
2013-03-08 13:22:00,58.8,37.6,29.73,WNW,301,11.0,11.0,45,0.00,,,0.00,meteohub,2013-03-08 21:22:00,
2013-03-08 13:27:00,59.2,37.2,29.73,WNW,294,0.0,11.0,44,0.00,,,0.00,meteohub,2013-03-08 21:27:00,
2013-03-08 13:32:00,59.0,38.3,29.73,WNW,294,0.0,11.0,46,0.00,,,0.00,meteohub,2013-03-08 21:32:00,
2013-03-08 13:37:00,59.0,42.8,29.73,WNW,294,1.0,11.0,55,0.00,,,0.00,meteohub,2013-03-08 21:37:00,
2013-03-08 13:42:00,59.0,44.2,29.72,WNW,294,1.0,5.0,58,0.00,,,0.00,meteohub,2013-03-08 21:42:00,
2013-03-08 13:47:00,58.6,43.9,29.72,WNW,294,1.0,5.0,58,0.00,,,0.00,meteohub,2013-03-08 21:47:00,
2013-03-08 13:52:00,58.8,45.0,29.72,WNW,294,0.0,5.0,60,0.00,,,0.00,meteohub,2013-03-08 21:52:00,
2013-03-08 13:57:00,58.8,44.1,29.71,WNW,288,1.0,7.0,58,0.00,,,0.00,meteohub,2013-03-08 21:57:00,
2013-03-08 14:02:00,58.8,43.7,29.71,WNW,288,2.0,7.0,57,0.00,,,0.00,meteohub,2013-03-08 22:02:00,
2013-03-08 14:07:00,58.6,44.4,29.71,WNW,288,0.0,5.0,59,0.00,,,0.00,meteohub,2013-03-08 22:07:00,
2013-03-08 14:13:00,58.6,43.5,29.71,NNW,327,1.0,5.0,57,0.00,,,0.00,meteohub,2013-03-08 22:13:00,
2013-03-08 14:18:00,58.6,43.9,29.71,NNW,327,2.0,6.0,58,0.00,,,0.00,meteohub,2013-03-08 22:18:00,
2013-03-08 14:23:00,58.5,44.2,29.71,NW,325,0.0,6.0,59,0.00,,,0.00,meteohub,2013-03-08 22:23:00,
2013-03-08 14:28:00,58.5,45.5,29.72,NW,325,0.0,7.0,62,0.00,,,0.00,meteohub,2013-03-08 22:28:00,
2013-03-08 14:33:00,58.3,45.3,29.72,NW,323,1.0,7.0,62,0.00,,,0.00,meteohub,2013-03-08 22:33:00,
2013-03-08 14:38:00,58.5,45.9,29.72,NW,316,2.0,7.0,63,0.00,,,0.00,meteohub,2013-03-08 22:38:00,
2013-03-08 14:43:00,58.5,45.9,29.72,NW,306,3.0,6.0,63,0.00,,,0.00,meteohub,2013-03-08 22:43:00,
2013-03-08 14:48:00,58.6,46.0,29.72,NW,306,0.0,6.0,63,0.00,,,0.00,meteohub,2013-03-08 22:48:00,
2013-03-08 14:53:00,58.8,47.1,29.72,NW,306,0.0,6.0,65,0.00,,,0.00,meteohub,2013-03-08 22:53:00,
2013-03-08 14:58:00,58.8,47.1,29.72,NW,306,0.0,6.0,65,0.00,,,0.00,meteohub,2013-03-08 22:58:00,
2013-03-08 15:03:00,58.6,46.6,29.72,NW,310,2.0,5.0,64,0.00,,,0.00,meteohub,2013-03-08 23:03:00,
2013-03-08 15:08:00,58.3,46.6,29.72,WNW,301,1.0,5.0,65,0.00,,,0.00,meteohub,2013-03-08 23:08:00,
2013-03-08 15:13:00,57.9,46.2,29.73,WNW,300,2.0,5.0,65,0.00,,,0.00,meteohub,2013-03-08 23:13:00,
2013-03-08 15:18:00,57.9,46.2,29.73,WNW,300,2.0,6.0,65,0.00,,,0.00,meteohub,2013-03-08 23:18:00,
2013-03-08 15:23:00,57.7,46.4,29.73,WNW,294,1.0,6.0,66,0.00,,,0.00,meteohub,2013-03-08 23:23:00,
2013-03-08 15:28:00,57.7,46.9,29.73,WNW,294,0.0,7.0,67,0.00,,,0.00,meteohub,2013-03-08 23:28:00,
2013-03-08 15:33:00,57.6,46.2,29.73,WNW,286,1.0,7.0,66,0.00,,,0.00,meteohub,2013-03-08 23:33:00,
2013-03-08 15:38:00,57.4,46.9,29.73,WNW,286,0.0,7.0,68,0.00,,,0.00,meteohub,2013-03-08 23:38:00,
2013-03-08 15:43:00,57.0,46.2,29.73,WNW,286,3.0,6.0,67,0.00,,,0.00,meteohub,2013-03-08 23:43:00,
2013-03-08 15:48:00,57.0,46.2,29.73,West,277,5.0,6.0,67,0.00,,,0.00,meteohub,2013-03-08 23:48:00,
2013-03-08 15:53:00,57.0,46.2,29.73,West,277,1.0,7.0,67,0.00,,,0.00,meteohub,2013-03-08 23:53:00,
2013-03-08 15:58:00,56.8,46.4,29.73,WNW,284,4.0,7.0,68,0.00,,,0.00,meteohub,2013-03-08 23:58:00,
2013-03-08 16:03:00,56.8,46.8,29.73,WNW,284,0.0,7.0,69,0.00,,,0.00,meteohub,2013-03-09 00:03:00,
2013-03-08 16:08:00,56.5,46.4,29.73,WNW,284,1.0,6.0,69,0.00,,,0.00,meteohub,2013-03-09 00:08:00,
2013-03-08 16:13:00,56.5,46.0,29.73,WNW,284,1.0,6.0,68,0.00,,,0.00,meteohub,2013-03-09 00:13:00,
2013-03-08 16:18:00,56.7,45.9,29.73,WNW,284,2.0,3.0,67,0.00,,,0.00,meteohub,2013-03-09 00:18:00,
2013-03-08 16:23:00,56.7,46.6,29.73,WNW,300,0.0,3.0,69,0.00,,,0.00,meteohub,2013-03-09 00:23:00,
2013-03-08 16:28:00,56.5,46.0,29.73,WNW,300,0.0,6.0,68,0.00,,,0.00,meteohub,2013-03-09 00:28:00,
2013-03-08 16:33:00,56.1,46.8,29.73,WNW,300,1.0,6.0,71,0.00,,,0.00,meteohub,2013-03-09 00:33:00,
2013-03-08 16:38:00,55.8,46.0,29.73,WNW,300,1.0,6.0,70,0.00,,,0.00,meteohub,2013-03-09 00:38:00,
2013-03-08 16:43:00,55.8,46.6,29.73,WNW,301,0.0,5.0,71,0.00,,,0.00,meteohub,2013-03-09 00:43:00,
2013-03-08 16:48:00,55.6,46.8,29.73,WNW,301,0.0,5.0,72,0.00,,,0.00,meteohub,2013-03-09 00:48:00,
2013-03-08 16:53:00,55.2,45.1,29.73,WNW,301,0.0,5.0,69,0.00,,,0.00,meteohub,2013-03-09 00:53:00,
2013-03-08 16:58:00,55.2,45.7,29.74,WNW,301,0.0,5.0,70,0.00,,,0.00,meteohub,2013-03-09 00:58:00,
2013-03-08 17:03:00,55.2,45.1,29.74,WNW,301,0.0,5.0,69,0.00,,,0.00,meteohub,2013-03-09 01:03:00,
2013-03-08 17:08:00,55.0,45.5,29.74,WNW,301,0.0,4.0,70,0.00,,,0.00,meteohub,2013-03-09 01:08:00,
2013-03-08 17:13:00,54.9,46.0,29.75,WNW,301,0.0,3.0,72,0.00,,,0.00,meteohub,2013-03-09 01:13:00,
2013-03-08 17:18:00,54.3,45.9,29.75,WNW,301,1.0,2.0,73,0.00,,,0.00,meteohub,2013-03-09 01:18:00,
2013-03-08 17:23:00,54.1,45.7,29.75,WNW,301,0.0,2.0,73,0.00,,,0.00,meteohub,2013-03-09 01:23:00,
2013-03-08 17:28:00,54.0,46.2,29.76,WNW,301,1.0,2.0,75,0.00,,,0.00,meteohub,2013-03-09 01:28:00,
2013-03-08 17:34:00,53.6,46.2,29.76,WNW,301,0.0,2.0,76,0.00,,,0.00,meteohub,2013-03-09 01:34:00,
2013-03-08 17:39:00,53.4,45.7,29.76,WNW,301,0.0,1.0,75,0.00,,,0.00,meteohub,2013-03-09 01:39:00,
2013-03-08 17:44:00,53.2,45.9,29.77,WNW,301,0.0,2.0,76,0.00,,,0.00,meteohub,2013-03-09 01:44:00,
2013-03-08 17:49:00,52.9,45.1,29.77,WNW,301,1.0,2.0,75,0.00,,,0.00,meteohub,2013-03-09 01:49:00,
2013-03-08 17:54:00,52.5,45.5,29.78,WNW,301,0.0,2.0,77,0.00,,,0.00,meteohub,2013-03-09 01:54:00,
2013-03-08 17:59:00,52.5,45.9,29.78,WNW,301,0.0,4.0,78,0.00,,,0.00,meteohub,2013-03-09 01:59:00,
2013-03-08 18:04:00,52.2,45.5,29.78,WNW,301,0.0,4.0,78,0.00,,,0.00,meteohub,2013-03-09 02:04:00,
2013-03-08 18:09:00,52.0,45.0,29.78,WNW,301,0.0,4.0,77,0.00,,,0.00,meteohub,2013-03-09 02:09:00,
2013-03-08 18:14:00,51.8,45.1,29.78,WNW,301,0.0,1.0,78,0.00,,,0.00,meteohub,2013-03-09 02:14:00,
2013-03-08 18:19:00,51.4,44.8,29.78,WNW,301,0.0,1.0,78,0.00,,,0.00,meteohub,2013-03-09 02:19:00,
2013-03-08 18:24:00,51.3,45.0,29.80,WNW,301,0.0,1.0,79,0.00,,,0.00,meteohub,2013-03-09 02:24:00,
2013-03-08 18:29:00,50.7,44.4,29.80,WNW,301,0.0,0.0,79,0.00,,,0.00,meteohub,2013-03-09 02:29:00,
2013-03-08 18:34:00,50.5,43.9,29.80,WNW,301,0.0,0.0,78,0.00,,,0.00,meteohub,2013-03-09 02:34:00,
2013-03-08 18:39:00,50.2,43.9,29.81,WNW,301,0.0,0.0,79,0.00,,,0.00,meteohub,2013-03-09 02:39:00,
2013-03-08 18:44:00,49.8,43.5,29.81,WNW,301,0.0,1.0,79,0.00,,,0.00,meteohub,2013-03-09 02:44:00,
2013-03-08 18:49:00,49.8,43.5,29.81,WNW,301,0.0,2.0,79,0.00,,,0.00,meteohub,2013-03-09 02:49:00,
2013-03-08 18:54:00,49.6,42.4,29.81,WNW,301,0.0,2.0,76,0.00,,,0.00,meteohub,2013-03-09 02:54:00,
2013-03-08 18:59:00,49.5,42.6,29.81,WNW,301,0.0,2.0,77,0.00,,,0.00,meteohub,2013-03-09 02:59:00,
2013-03-08 19:04:00,49.5,42.6,29.81,WNW,301,0.0,2.0,77,0.00,,,0.00,meteohub,2013-03-09 03:04:00,
2013-03-08 19:09:00,48.9,41.7,29.82,WNW,301,0.0,2.0,76,0.00,,,0.00,meteohub,2013-03-09 03:09:00,
2013-03-08 19:14:00,48.7,41.2,29.82,WNW,301,1.0,0.0,75,0.00,,,0.00,meteohub,2013-03-09 03:14:00,
2013-03-08 19:19:00,48.7,41.2,29.82,WNW,301,0.0,1.0,75,0.00,,,0.00,meteohub,2013-03-09 03:19:00,
2013-03-08 19:24:00,48.7,41.9,29.83,WNW,301,2.0,4.0,77,0.00,,,0.00,meteohub,2013-03-09 03:24:00,
2013-03-08 19:29:00,48.9,41.4,29.83,WNW,301,0.0,4.0,75,0.00,,,0.00,meteohub,2013-03-09 03:29:00,
2013-03-08 19:34:00,48.7,41.2,29.83,WNW,301,0.0,4.0,75,0.00,,,0.00,meteohub,2013-03-09 03:34:00,
2013-03-08 19:39:00,48.6,41.7,29.83,WNW,301,0.0,4.0,77,0.00,,,0.00,meteohub,2013-03-09 03:39:00,
2013-03-08 19:44:00,48.6,41.4,29.83,WNW,301,0.0,4.0,76,0.00,,,0.00,meteohub,2013-03-09 03:44:00,
2013-03-08 19:49:00,48.4,40.1,29.83,WNW,301,0.0,2.0,73,0.00,,,0.00,meteohub,2013-03-09 03:49:00,
2013-03-08 19:54:00,48.4,40.5,29.84,WNW,301,0.0,1.0,74,0.00,,,0.00,meteohub,2013-03-09 03:54:00,
2013-03-08 19:59:00,48.0,40.5,29.84,WNW,301,0.0,3.0,75,0.00,,,0.00,meteohub,2013-03-09 03:59:00,
2013-03-08 20:04:00,48.0,41.2,29.84,WNW,301,0.0,3.0,77,0.00,,,0.00,meteohub,2013-03-09 04:04:00,
2013-03-08 20:09:00,47.8,41.4,29.84,WNW,301,0.0,3.0,78,0.00,,,0.00,meteohub,2013-03-09 04:09:00,
2013-03-08 20:14:00,47.7,40.5,29.84,WNW,301,0.0,2.0,76,0.00,,,0.00,meteohub,2013-03-09 04:14:00,
2013-03-08 20:19:00,47.3,40.5,29.84,WNW,301,0.0,2.0,77,0.00,,,0.00,meteohub,2013-03-09 04:19:00,
2013-03-08 20:24:00,46.9,40.5,29.84,WNW,301,0.0,1.0,78,0.00,,,0.00,meteohub,2013-03-09 04:24:00,
2013-03-08 20:29:00,46.4,39.9,29.84,WNW,301,0.0,1.0,78,0.00,,,0.00,meteohub,2013-03-09 04:29:00,
2013-03-08 20:34:00,46.0,39.9,29.84,WNW,301,0.0,1.0,79,0.00,,,0.00,meteohub,2013-03-09 04:34:00,
2013-03-08 20:39:00,45.7,39.9,29.85,WNW,301,0.0,1.0,80,0.00,,,0.00,meteohub,2013-03-09 04:39:00,
2013-03-08 20:44:00,45.1,39.4,29.85,WNW,301,0.0,1.0,80,0.00,,,0.00,meteohub,2013-03-09 04:44:00,
2013-03-08 20:49:00,44.8,39.6,29.85,WNW,301,0.0,0.0,82,0.00,,,0.00,meteohub,2013-03-09 04:49:00,
2013-03-08 20:54:00,44.2,39.0,29.86,WNW,301,0.0,0.0,82,0.00,,,0.00,meteohub,2013-03-09 04:54:00,
2013-03-08 20:59:00,44.1,39.2,29.86,WNW,301,0.0,0.0,83,0.00,,,0.00,meteohub,2013-03-09 04:59:00,
2013-03-08 21:00:00,43.9,39.0,29.86,WNW,301,0.0,0.0,83,0.00,,,0.00,meteohub,2013-03-09 05:00:00,
2013-03-08 21:05:00,43.5,39.0,29.86,WNW,301,0.0,0.0,84,0.00,,,0.00,meteohub,2013-03-09 05:05:00,
2013-03-08 21:10:00,43.3,39.2,29.87,WNW,301,0.0,0.0,85,0.00,,,0.00,meteohub,2013-03-09 05:10:00,
2013-03-08 21:15:00,43.2,39.0,29.87,WNW,301,0.0,0.0,85,0.00,,,0.00,meteohub,2013-03-09 05:15:00,
2013-03-08 21:20:00,43.0,39.0,29.87,WNW,301,0.0,2.0,86,0.00,,,0.00,meteohub,2013-03-09 05:20:00,
2013-03-08 21:25:00,42.8,39.2,29.87,WNW,301,0.0,2.0,87,0.00,,,0.00,meteohub,2013-03-09 05:25:00,
2013-03-08 21:30:00,42.6,39.0,29.87,WNW,301,0.0,2.0,87,0.00,,,0.00,meteohub,2013-03-09 05:30:00,
2013-03-08 21:35:00,42.6,39.0,29.87,WNW,301,0.0,1.0,87,0.00,,,0.00,meteohub,2013-03-09 05:35:00,
2013-03-08 21:40:00,42.6,39.4,29.87,WNW,301,0.0,1.0,88,0.00,,,0.00,meteohub,2013-03-09 05:40:00,
2013-03-08 21:45:00,42.6,38.7,29.87,WNW,301,0.0,1.0,86,0.00,,,0.00,meteohub,2013-03-09 05:45:00,
2013-03-08 21:50:00,42.4,38.8,29.87,WNW,301,0.0,1.0,87,0.00,,,0.00,meteohub,2013-03-09 05:50:00,
2013-03-08 21:55:00,42.4,39.2,29.88,WNW,301,0.0,3.0,88,0.00,,,0.00,meteohub,2013-03-09 05:55:00,
2013-03-08 22:00:00,42.6,39.4,29.88,WNW,302,0.0,5.0,88,0.00,,,0.00,meteohub,2013-03-09 06:00:00,
2013-03-08 22:05:00,43.0,39.4,29.88,WNW,302,0.0,5.0,87,0.00,,,0.00,meteohub,2013-03-09 06:05:00,
2013-03-08 22:10:00,43.2,39.2,29.88,WNW,302,0.0,5.0,86,0.00,,,0.00,meteohub,2013-03-09 06:10:00,
2013-03-08 22:15:00,43.3,39.4,29.88,WNW,302,0.0,2.0,86,0.00,,,0.00,meteohub,2013-03-09 06:15:00,
2013-03-08 22:20:00,43.3,39.4,29.88,WNW,302,0.0,1.0,86,0.00,,,0.00,meteohub,2013-03-09 06:20:00,
2013-03-08 22:25:00,43.2,39.2,29.88,WNW,302,5.0,5.0,86,0.00,,,0.00,meteohub,2013-03-09 06:25:00,
2013-03-08 22:30:00,43.2,39.0,29.88,NNW,328,3.0,5.0,85,0.00,,,0.00,meteohub,2013-03-09 06:30:00,
2013-03-08 22:35:00,43.5,39.4,29.88,NNW,328,1.0,7.0,85,0.00,,,0.00,meteohub,2013-03-09 06:35:00,
2013-03-08 22:41:00,43.7,39.6,29.89,NW,318,0.0,7.0,85,0.00,,,0.00,meteohub,2013-03-09 06:41:00,
2013-03-08 22:46:00,43.9,39.9,29.89,NW,318,0.0,7.0,86,0.00,,,0.00,meteohub,2013-03-09 06:46:00,
2013-03-08 22:51:00,43.9,39.7,29.89,NW,318,0.0,5.0,85,0.00,,,0.00,meteohub,2013-03-09 06:51:00,
2013-03-08 22:56:00,43.5,39.6,29.89,NW,318,0.0,0.0,86,0.00,,,0.00,meteohub,2013-03-09 06:56:00,
2013-03-08 23:01:00,43.5,39.4,29.89,NW,318,0.0,2.0,85,0.00,,,0.00,meteohub,2013-03-09 07:01:00,
2013-03-08 23:06:00,43.7,39.6,29.89,NW,318,0.0,4.0,85,0.00,,,0.00,meteohub,2013-03-09 07:06:00,
2013-03-08 23:11:00,43.5,39.4,29.89,NW,318,0.0,4.0,85,0.00,,,0.00,meteohub,2013-03-09 07:11:00,
2013-03-08 23:16:00,43.3,39.2,29.89,NW,318,0.0,2.0,85,0.00,,,0.00,meteohub,2013-03-09 07:16:00,
2013-03-08 23:21:00,43.3,39.4,29.89,NW,318,0.0,1.0,86,0.00,,,0.00,meteohub,2013-03-09 07:21:00,
2013-03-08 23:26:00,43.2,39.2,29.89,NW,318,0.0,1.0,86,0.00,,,0.00,meteohub,2013-03-09 07:26:00,
2013-03-08 23:31:00,43.0,39.0,29.89,NW,318,0.0,1.0,86,0.00,,,0.00,meteohub,2013-03-09 07:31:00,
2013-03-08 23:36:00,42.6,38.7,29.89,NW,318,0.0,1.0,86,0.00,,,0.00,meteohub,2013-03-09 07:36:00,
2013-03-08 23:41:00,42.4,38.5,29.90,NW,318,0.0,0.0,86,0.00,,,0.00,meteohub,2013-03-09 07:41:00,
2013-03-08 23:46:00,42.3,38.7,29.90,NW,318,0.0,0.0,87,0.00,,,0.00,meteohub,2013-03-09 07:46:00,
2013-03-08 23:51:00,41.7,38.1,29.90,NW,318,0.0,0.0,87,0.00,,,0.00,meteohub,2013-03-09 07:51:00,
2013-03-08 23:56:00,41.5,38.3,29.90,NW,318,0.0,0.0,88,0.00,,,0.00,meteohub,2013-03-09 07:56:00,